Regional Weather Roundup
Issued by NWS San Angelo, TX

Home | Current Version | Previous Version | Text Only | Print | Product List | Glossary On
Versions: 1 2 3 4 5 6 7 8 9 10 11 12 13 14 15 16 17 18 19 20 21 22 23 24 25 26 27 28 29 30 31 32 33 34 35 36 37 38 39 40 41 42 43 44 45 46 47 48 49 50
000
ASUS44 KSJT 042002
RWRSJT
WEST CENTRAL TEXAS REGIONAL WEATHER ROUNDUP
NATIONAL WEATHER SERVICE SAN ANGELO TX
300 PM CDT TUE AUG 04 2015

NOTE: "FAIR" INDICATES FEW OR NO CLOUDS BELOW 12,000 FEET WITH NO
SIGNIFICANT WEATHER AND/OR OBSTRUCTIONS TO VISIBILITY.

TXZ049-054-064>066-071>073-076>078-098-099-113-114-127-128-139-140-
154-155-168>170-042100
...LOCATIONS ACROSS WEST CENTRAL TEXAS...

CITY           SKY/WX    TMP DP  RH WIND       PRES   REMARKS
SAN ANGELO     PTSUNNY   98  62  30 VRB5      29.95F
ABILENE        PTSUNNY   95  62  33 SE10      29.95F
DYESS AFB      NOT AVBL
JUNCTION       SUNNY     97  60  29 MISG      29.95F
SWEETWATER     NOT AVBL
BROWNWOOD      NOT AVBL
COLEMAN        PTCLDY    98  66  35 S6        29.96F
SONORA         NOT AVBL
OZONA          NOT AVBL
BRADY          SUNNY     97  64  34 SE7       29.96F
$$

TEXAS PANHANDLE/OKLAHOMA PANHANDLE

CITY           SKY/WX    TMP DP  RH WIND       PRES   REMARKS
AMARILLO       SUNNY     86  65  49 S12       30.01F
BORGER         SUNNY     88  67  49 SW9       29.97F
CANADIAN       PTSUNNY   87  71  57 SW7       29.94F
DALHART        SUNNY     89  64  43 S9        30.01F
DUMAS          CLEAR     84  67  56 SW12      30.01S
GUYMON         NOT AVBL
HEREFORD       NOT AVBL
PAMPA          PTCLDY    87  68  52 SW15      29.99F
PERRYTON       NOT AVBL
$$

SOUTHERN PANHANDLE/SOUTH PLAINS/ROLLING PLAINS

CITY           SKY/WX    TMP DP  RH WIND       PRES   REMARKS
LUBBOCK        MOSUNNY   90  66  45 SW15      30.01F
SNYDER         NOT AVBL
CHILDRESS      MOSUNNY   91  68  46 S12G20    29.95F
SEMINOLE       CLEAR     91  61  35 SW10      30.03F
$$

PERMIAN BASIN

CITY           SKY/WX    TMP DP  RH WIND       PRES   REMARKS
MIDLAND        SUNNY     95  60  31 MISG      29.98F
ODESSA         SUNNY     95  58  28 VRB5      29.99F
WINK           SUNNY     98  59  27 SE7       29.95F
$$

FAR WEST/SOUTHWEST MOUNTAINS/TRANS PECOS

CITY           SKY/WX    TMP DP  RH WIND       PRES   REMARKS
ALPINE         PTCLDY    92  54  27 E6        30.15S
DRYDEN           N/A    100  63  29 SW8       29.93F
EL PASO        MOSUNNY   94  54  25 VRB6      30.06F
FORT STOCKTON  SUNNY     97  55  24 CALM      29.98F
GUADALUPE PASS MOSUNNY   91  57  31 W16G25    30.19S
MARFA          PTSUNNY   82  57  42 N22G29    30.16R THUNDER
PECOS          NOT AVBL
$$

DALLAS/FORT WORTH METROPLEX

CITY           SKY/WX    TMP DP  RH WIND       PRES   REMARKS
DFW AIRPORT    MOSUNNY   98  63  31 S10G18    29.91F
FTW MEACHAM    MOSUNNY   99  63  30 SE8       29.91F
DAL-EXECUTIVE  SUNNY     97  62  31 VRB5G17   29.92F
GRAND PRAIRIE  SUNNY     95  64  36 S7        29.93F
ADDISON        MOSUNNY   97  59  28 S13G22    29.93F
MESQUITE       PTCLDY    97  59  28 S7G17     29.93F
LANCASTER      PTCLDY    97  58  27 SE12      29.93F
$$

NORTH CENTRAL TEXAS

CITY           SKY/WX    TMP DP  RH WIND       PRES   REMARKS
SHRMAN/DENISON MOCLDY    95  71  45 E13       29.94F
GAINESVILLE    NOT AVBL
BRIDGEPORT     NOT AVBL
DENTON         MOSUNNY   96  64  34 S14G20    29.91F
WAXAHACHIE     PTCLDY    97  65  34 S5        29.94F
GRANBURY       NOT AVBL
$$

WESTERN NORTH TEXAS

CITY           SKY/WX    TMP DP  RH WIND       PRES   REMARKS
WICHITA FALLS  PTSUNNY   92  69  47 SW14G21   29.92F
VERNON         MOCLDY    89  63  41 S10       29.93F
BRECKENRIDGE   PTCLDY    98  62  30 SE9       29.92F
COMANCHE       MOSUNNY   97  64  33 S12       29.95F
$$

CENTRAL AND SOUTH CENTRAL TEXAS

CITY           SKY/WX    TMP DP  RH WIND       PRES   REMARKS
AUSTIN/BERGSTM MOSUNNY   96  68  39 SE12      29.93F
WACO           SUNNY     97  68  38 S8        29.92F
HILLSBORO      NOT AVBL
TEMPLE         MOSUNNY   97  66  36 S9G18     29.93F
KILLEEN-GRAY   NOT AVBL
FORT HOOD      MOSUNNY   97  68  38 VRB7      29.92F
GEORGETOWN     MOSUNNY   95  66  38 S10       29.93F
LAGO VISTA     MOCLDY    96  63  33 S7        29.97F
SAN MARCOS     MOSUNNY   97  68  38 S16       29.94F
NEW BRAUNFELS  PTSUNNY   99  70  38 VRB7      29.93F
RANDOLPH AFB   MOSUNNY   93  68  42 S10       29.94F
SAN ANTONIO    MOSUNNY   97  67  37 SE12G20   29.94F
STINSON        MOSUNNY   97  67  37 SE7       29.91F
PLEASANTON     NOT AVBL
LA GRANGE      SUNNY     95  70  43 S8        29.92F
GIDDINGS       NOT AVBL
$$

EAST TEXAS

CITY           SKY/WX    TMP DP  RH WIND       PRES   REMARKS
PARIS          PTSUNNY   91  66  43 NE5       29.93F
CLARKSVILLE    NOT AVBL
TYLER          MOSUNNY   98  64  32 SW8       29.95F
LONGVIEW       MOSUNNY   99  64  31 SW10      29.94F
PALESTINE      PTCLDY    96  62  31 S9        29.96F
NACOGDOCHES    MOSUNNY   93  68  43 SW5       29.95S
$$

TEXAS HILL COUNTRY AND EDWARDS PLATEAU

CITY           SKY/WX    TMP DP  RH WIND       PRES   REMARKS
LLANO          NOT AVBL
HORSESHOE BAY  MOCLDY    96  64  34 SW6       29.95S
KERRVILLE      PTSUNNY   92  67  44 SE7       29.98F
FREDERICKSBRG  NOT AVBL
ROCKSPRINGS    NOT AVBL
HONDO          MOSUNNY   96  70  42 S12       29.95F
UVALDE         CLEAR     95  70  44 SE6       29.93F
DEL RIO        SUNNY     99  66  33 E12G20    29.89F
$$

SOUTHEAST TEXAS

CITY           SKY/WX    TMP DP  RH WIND       PRES   REMARKS
COLLEGE STN    MOSUNNY   97  71  42 SE12      29.93F
CALDWELL       NOT AVBL
CROCKETT       NOT AVBL
BRENHAM        SUNNY     95  71  45 S6        29.95F
HUNTSVILLE     MOSUNNY   94  67  41 S7        29.95F
CONROE         MOSUNNY   94  67  41 SE7       29.95F
HOUSTON BUSH   PTSUNNY   94  73  50 SW9G20    29.94F
HOUSTON HOBBY  PTSUNNY   91  75  59 SE13      29.95F
PERLAND        LGT RAIN  88  75  65 SE13      29.98F
WHARTON        MOCLDY    92  70  47 SE10      29.95F
$$

THE UPPER TEXAS COAST

CITY           SKY/WX    TMP DP  RH WIND       PRES   REMARKS
ORANGE         PTCLDY    95  67  39 S13       29.97S
PORT ARTHUR    MOSUNNY   94  74  52 SW12      29.95F
GALVESTON        N/A     93  78  61 S13       29.98F
ANGLETON       MOSUNNY   94  72  48 S15       29.96F
BAY CITY       PTCLDY    95  73  48 S14       29.95F
$$

TEXAS COASTAL BEND, RIO GRANDE PLAINS DEEP SOUTH TEXAS

CITY           SKY/WX    TMP DP  RH WIND       PRES   REMARKS
VICTORIA       SUNNY     96  69  41 S16       29.94F
BEEVILLE       MOCLDY    94  74  52 SE9       29.92F
ROCKPORT       MOSUNNY   92  76  59 SE15      29.94F
PORT ARANSAS   CLEAR     88  78  72 SE10      29.95S
PORT LAVACA    CLEAR     94  73  50 S10G18    29.95F
CORPUS CHRISTI MOSUNNY   91  78  65 SE16      29.92F
KINGSVILLE NAS MOSUNNY   95  80  61 E14G22    29.91S
COTULLA        MOSUNNY  101  65  30 VRB6      29.89F
LAREDO         SUNNY    104  58  21 SE14G21   29.89F
BROWNSVILLE    PTSUNNY   93  77  59 SE20G28   29.91F
PORT ISABEL    MOSUNNY   94  77  57 SE21      29.90F
HEBBRONVILLE   NOT AVBL
MCALLEN        MOSUNNY  103  72  36 SE15G26   29.88F
WESLACO        NOT AVBL
FALFURRIAS     PTCLDY   100  67  33 S9        29.88F
EDINBURG       PTCLDY   100  68  35 S8        29.88F
$$


USA.gov is the U.S. government's official web portal to all federal, state and local government web resources and services.